RH
98 99 98 95 98 86 77 73 72 79 91 90 84 94 89 96 95 100 92 80 77 77 56 54 67 93 96
98 97 97 94 95 84 70 60 60 66 70 70 65 59 49 49 55 58 74 78 79 76 72 53 53 63 76
92 70 59 54 52 47 47 46 45 44 46 48 53 57 54 50 52 55 44 54 70 69 76 81 70 66 60
91 89 85 84 83 73 58 53 56 50 51 50 58 59 57 54 60 60 60 70 74 69 84 85 86 84 65
45 74 81 83 87 91 90 87 76 70 68 73 76 70 65 67 72 68 60 70 89 92 97 97 81 77 61
30 27 27 28 30 44 74 87 88 83 70 89 83 79 71 68 90 96 75 78 80 89 97 98 84 71 73
94 75 57 43 37 38 39 40 47 80 82 88 92 88 85 99 90 85 92 86 91 88 87 86 65 98 96
45 49 72 89 90 68 55 48 47 64 55 76 91 93 100 100 95 96 94 91 92 85 81 71 65 92 98
43 53 53 47 46 68 79 78 75 80 72 48 67 68 80 98 90 93 96 96 94 88 87 93 80 95 91
75 69 66 63 52 43 41 45 60 71 84 69 70 70 69 85 93 86 82 85 98 99 98 99 98 96 98
12 13 17 30 41 53 50 34 28 32 43 60 66 72 51 75 79 83 74 83 69 98 97 99 100 97 99
13 14 14 13 13 12 10 17 36 28 32 35 40 52 62 59 66 82 76 75 73 86 68 73 99 99 98
14 18 18 17 16 15 14 11 8 7 19 37 23 26 38 54 59 73 78 74 70 76 99 72 65 99 99
15 14 14 14 15 14 16 16 14 11 5 5 19 26 19 28 46 61 81 73 70 75 62 64 88 89 97
18 19 18 19 19 20 19 19 18 16 10 4 4 8 26 26 19 37 55 71 74 71 62 53 50 67 88
23 23 21 19 17 17 18 21 20 19 14 7 4 3 4 14 30 25 28 46 67 73 73 64 52 52 52
66 63 60 46 28 20 17 22 36 34 35 28 12 6 4 4 6 26 32 31 41 57 67 74 72 58 48
Wind_Speed
59 60 60 61 58 58 60 62 62 66 74 77 73 71 69 65 52 51 55 57 55 57 52 49 49 46 45
50 55 57 59 60 63 65 65 64 65 64 66 71 77 79 78 73 65 64 61 55 51 58 53 50 49 49
57 58 59 60 60 62 64 62 62 62 63 66 68 73 77 78 75 68 72 71 61 59 58 56 55 53 53
56 57 58 58 58 60 62 61 63 62 63 64 65 66 67 70 72 70 68 66 64 62 63 61 58 61 57
52 52 54 54 55 57 57 57 61 59 62 61 63 63 63 65 66 68 70 72 70 70 67 68 64 62 59
58 58 57 56 54 52 55 56 61 63 61 59 57 61 62 62 63 63 67 66 70 73 67 62 65 60 56
59 61 61 62 61 59 57 55 53 54 59 60 61 61 64 62 68 65 63 65 67 68 66 61 60 58 54
59 62 62 63 63 64 63 61 60 57 58 56 54 54 58 61 57 62 70 67 65 63 62 64 64 69 60
54 59 61 64 66 68 69 69 67 65 66 61 57 54 53 52 52 52 50 57 68 66 66 65 67 67 66
48 51 54 58 65 70 72 73 73 71 70 68 65 61 57 58 58 54 53 52 54 62 58 56 57 60 55
47 49 51 53 55 59 64 70 74 76 76 74 71 69 66 60 60 61 57 56 48 57 49 55 56 54 55
43 45 47 48 48 49 54 60 66 71 75 80 79 78 73 70 64 64 65 61 57 53 49 46 57 55 52
46 46 46 48 50 50 51 52 56 63 71 75 79 81 81 78 74 69 69 69 63 58 56 48 50 58 60
48 49 50 51 52 54 53 53 51 52 63 74 77 78 79 82 82 77 75 73 74 66 61 59 57 54 57
47 47 48 49 50 52 52 52 52 52 52 61 73 78 78 79 81 85 80 78 78 78 70 65 63 60 55
40 42 43 44 45 46 46 46 45 46 46 49 56 67 76 77 79 79 84 82 82 81 79 72 69 66 64
28 29 31 32 33 35 36 35 36 37 37 38 41 50 59 68 74 77 76 81 82 83 84 81 76 73 69
Wind_Direction
242 247 251 251 255 258 262 262 261 258 253 252 252 251 250 252 246 252 251 249 248 249 248 251 250 247 247
253 251 253 256 258 260 258 257 258 258 257 255 255 256 260 262 265 259 255 251 254 256 246 247 249 251 247
257 259 259 257 255 254 255 257 258 257 257 256 256 255 254 255 256 254 253 256 257 247 246 249 250 253 250
254 256 259 260 260 257 255 255 258 258 258 258 257 256 256 256 255 250 248 245 243 244 242 245 247 249 249
260 260 260 261 262 262 261 260 259 260 261 260 259 257 258 255 254 253 248 245 246 243 245 246 247 248 253
262 260 260 259 260 260 259 260 259 260 260 261 257 256 254 256 252 250 252 251 246 247 250 244 247 252 253
265 263 263 262 260 259 258 255 256 259 259 257 258 258 256 258 252 249 248 248 247 246 248 247 248 243 240
265 265 264 265 263 261 260 258 256 256 254 253 255 256 252 250 252 252 251 246 244 245 245 249 247 244 242
270 265 263 263 262 262 261 259 258 256 256 251 251 252 256 254 253 255 251 245 242 244 244 249 245 238 240
275 271 268 267 265 261 259 258 258 257 258 254 253 250 246 249 250 251 251 246 244 241 237 237 236 235 238
282 279 277 276 274 269 264 259 254 253 253 253 252 251 249 242 247 250 250 246 245 239 235 231 232 236 227
284 282 279 277 278 279 277 272 266 257 254 251 248 249 248 246 239 242 248 245 243 248 224 236 227 223 223
288 286 281 280 281 281 282 281 276 268 262 258 249 246 244 243 242 238 237 246 243 239 235 233 236 225 224
286 285 285 285 285 285 285 285 287 283 268 258 255 249 242 240 239 238 236 234 243 240 238 237 234 232 228
291 287 287 287 286 284 284 284 286 288 283 266 255 249 246 242 237 236 234 233 233 239 236 235 234 233 235
303 301 299 296 292 287 283 283 287 291 290 275 262 253 246 243 241 237 234 230 231 233 236 232 233 231 229
325 325 324 320 307 296 289 285 291 295 297 292 275 260 251 246 242 240 238 236 230 229 231 234 230 231 229